OK9DOB-5 Weather Reports


Display with metric or nautical units.
time (UTC)temp
F
wind
direction
speed
MPH
gust
MPH
rain 1hr
in
rain 24hr
in
rain mn
in
humidity
%
barometer
mb
20260905174816 60 0.0 0.0 0.00 0.00 0.00 95
20260905173814 61 0.0 0.0 0.00 0.00 0.00 94
20260905172811 62 0.0 0.0 0.00 0.00 0.00 91
20260905171809 64 0.0 0.0 0.00 0.00 0.00 89
20260905170806 64 0.0 0.0 0.00 0.00 0.00 88
20260905165804 66 0.0 0.0 0.00 0.00 0.00 86
20260905164802 66 0.0 0.0 0.00 0.00 0.00 86
20260905163759 65 0.0 0.0 0.00 0.00 0.00 87
20260905162757 65 0.0 0.0 0.00 0.00 0.00 89
20260905161754 66 0.0 0.0 0.00 0.00 0.00 85
20260905160752 67 0.0 0.0 0.00 0.00 0.00 84
20260905155749 67 0.0 0.0 0.00 0.00 0.00 83
20260905154747 67 0.0 0.0 0.00 0.00 0.00 83
20260905153744 67 0.0 0.0 0.00 0.00 0.00 82
20260905152742 67 0.0 0.0 0.00 0.00 0.00 81
20260905151740 67 0.0 0.0 0.00 0.00 0.00 80
20260905150737 67 0.0 0.0 0.00 0.00 0.00 81
20260905145735 68 0.0 0.0 0.00 0.00 0.00 79
20260905144732 68 0.0 0.0 0.00 0.00 0.00 79
20260905143730 69 0.0 0.0 0.00 0.00 0.00 78
20260905142728 68 0.0 0.0 0.00 0.00 0.00 78
20260905141725 68 0.0 0.0 0.00 0.00 0.00 77
20260905140723 67 0.0 0.0 0.00 0.00 0.00 82
20260905135720 68 0.0 0.0 0.00 0.00 0.00 82
20260905134717 68 0.0 0.0 0.00 0.00 0.00 81
20260905133715 68 0.0 0.0 0.00 0.00 0.00 80
20260905132712 70 0.0 0.0 0.00 0.00 0.00 81
20260905131710 69 0.0 0.0 0.00 0.00 0.00 79
20260905130707 69 0.0 0.0 0.00 0.00 0.00 76
20260905125705 69 0.0 0.0 0.00 0.00 0.00 79
20260905124703 69 0.0 0.0 0.00 0.00 0.00 80
20260905123700 69 0.0 0.0 0.00 0.00 0.00 79
20260905122658 70 0.0 0.0 0.00 0.00 0.00 79
20260905121655 69 0.0 0.0 0.00 0.00 0.00 80
20260905120653 70 0.0 0.0 0.00 0.00 0.00 77
20260905115650 71 0.0 0.0 0.00 0.00 0.00 76
20260905114648 70 0.0 0.0 0.00 0.00 0.00 80
20260905113645 69 0.0 0.0 0.00 0.00 0.00 82
20260905112643 71 0.0 0.0 0.00 0.00 0.00 79
20260905111641 70 0.0 0.0 0.00 0.00 0.00 84
20260905110638 69 0.0 0.0 0.00 0.00 0.00 86
20260905105636 69 0.0 0.0 0.00 0.00 0.00 85
20260905104633 68 0.0 0.0 0.00 0.00 0.00 87
20260905103631 65 0.0 0.0 0.00 0.00 0.00 89
20260905102628 65 0.0 0.0 0.00 0.00 0.00 89
20260905101626 65 0.0 0.0 0.00 0.00 0.00 94
20260905100623 64 0.0 0.0 0.00 0.00 0.00 97
20260905095621 64 0.0 0.0 0.00 0.00 0.00 96
20260905094618 63 0.0 0.0 0.00 0.00 0.00 97
20260905093616 63 0.0 0.0 0.00 0.00 0.00 97
20260905092613 63 0.0 0.0 0.00 0.00 0.00 98
20260905091611 63 0.0 0.0 0.00 0.00 0.00 98
20260905090608 62 0.0 0.0 0.00 0.00 0.00 99
20260905085606 62 0.0 0.0 0.00 0.00 0.00 99
20260905084604 62 0.0 0.0 0.00 0.00 0.00 99
20260905083601 61 0.0 0.0 0.00 0.00 0.00 99
20260905082559 61 0.0 0.0 0.00 0.00 0.00 99
20260905081556 60 0.0 0.0 0.00 0.00 0.00 99
20260905080554 60 0.0 0.0 0.00 0.00 0.00 99
20260905075552 59 0.0 0.0 0.00 0.00 0.00 99
20260905074549 59 0.0 0.0 0.00 0.00 0.00 99
20260905073547 59 0.0 0.0 0.00 0.00 0.00 99
20260905072544 58 0.0 0.0 0.00 0.00 0.00 99
20260905071542 58 0.0 0.0 0.00 0.00 0.00 99
20260905070540 57 0.0 0.0 0.00 0.00 0.00 99
20260905065537 58 0.0 0.0 0.00 0.00 0.00 99
20260905064535 56 0.0 0.0 0.00 0.00 0.00 99
20260905063532 56 0.0 0.0 0.00 0.00 0.00 99
20260905062530 56 0.0 0.0 0.00 0.00 0.00 99
20260905061527 56 0.0 0.0 0.00 0.00 0.00 99
20260905060525 56 0.0 0.0 0.00 0.00 0.00 99
20260905055523 58 0.0 0.0 0.00 0.00 0.00 99
20260905054520 57 0.0 0.0 0.00 0.00 0.00 99
20260905053518 55 0.0 0.0 0.00 0.00 0.00 99
20260905052515 55 0.0 0.0 0.00 0.00 0.00 99
20260905051513 55 0.0 0.0 0.00 0.00 0.00 99
20260905050511 56 0.0 0.0 0.00 0.00 0.00 99
20260905045508 58 0.0 0.0 0.00 0.00 0.00 99
20260905044506 60 0.0 0.0 0.00 0.00 0.00 99
20260905043503 59 0.0 0.0 0.00 0.00 0.00 99
20260905042501 59 0.0 0.0 0.00 0.00 0.00 99
20260905041458 58 0.0 0.0 0.00 0.00 0.00 99
20260905040456 59 0.0 0.0 0.00 0.00 0.00 99
20260905035453 59 0.0 0.0 0.00 0.00 0.00 99
20260905034451 60 0.0 0.0 0.00 0.00 0.00 99
20260905033449 59 0.0 0.0 0.00 0.00 0.00 99
20260905032446 60 0.0 0.0 0.00 0.00 0.00 99
20260905031444 62 0.0 0.0 0.00 0.00 0.00 99
20260905030441 62 0.0 0.0 0.00 0.00 0.00 99
20260905025439 62 0.0 0.0 0.00 0.00 0.00 99
20260905024436 62 0.0 0.0 0.00 0.00 0.00 99
20260905023434 62 0.0 0.0 0.00 0.00 0.00 99
20260905022431 62 0.0 0.0 0.00 0.00 0.00 99
20260905021429 62 0.0 0.0 0.00 0.00 0.00 99
20260905020426 63 0.0 0.0 0.00 0.00 0.00 98
20260905015424 63 0.0 0.0 0.00 0.00 0.00 98
20260905014421 63 0.0 0.0 0.00 0.00 0.00 99
20260905013419 63 0.0 0.0 0.00 0.00 0.00 99
20260905012417 63 0.0 0.0 0.00 0.00 0.00 98
20260905011414 63 0.0 0.0 0.00 0.00 0.00 98
20260905010412 64 0.0 0.0 0.00 0.00 0.00 97
20260905005409 64 0.0 0.0 0.00 0.00 0.00 96
20260905004407 64 0.0 0.0 0.00 0.00 0.00 96
20260905003404 64 0.0 0.0 0.00 0.00 0.00 96
20260905002402 64 0.0 0.0 0.00 0.00 0.00 97
20260905001401 64 0.0 0.0 0.00 0.00 0.00 98
20260905000357 64 0.0 0.0 0.00 0.00 0.00 99
20260904235355 64 0.0 0.0 0.00 0.00 0.00 98
20260904234352 64 0.0 0.0 0.00 0.00 0.00 97
20260904233350 63 0.0 0.0 0.00 0.00 0.00 98
20260904232347 62 0.0 0.0 0.00 0.00 0.00 99
20260904231344 62 0.0 0.0 0.00 0.00 0.00 99
20260904230342 63 0.0 0.0 0.00 0.00 0.00 99
20260904225340 63 0.0 0.0 0.00 0.00 0.00 99
20260904224337 63 0.0 0.0 0.00 0.00 0.00 99
20260904223335 62 0.0 0.0 0.00 0.00 0.00 99
20260904222332 63 0.0 0.0 0.00 0.00 0.00 99
20260904221330 63 0.0 0.0 0.00 0.00 0.00 99
20260904220328 63 0.0 0.0 0.00 0.00 0.00 99
20260904215325 63 0.0 0.0 0.00 0.00 0.00 99
20260904214323 63 0.0 0.0 0.00 0.00 0.00 99
20260904213320 64 0.0 0.0 0.00 0.00 0.00 98
20260904212318 63 0.0 0.0 0.00 0.00 0.00 99
20260904211315 63 0.0 0.0 0.00 0.00 0.00 99
20260904210313 64 0.0 0.0 0.00 0.00 0.00 99
20260904205311 63 0.0 0.0 0.00 0.00 0.00 99
20260904204308 63 0.0 0.0 0.00 0.00 0.00 99
20260904203306 64 0.0 0.0 0.00 0.00 0.00 98
20260904202306 64 0.0 0.0 0.00 0.00 0.00 98
20260904201301 63 0.0 0.0 0.00 0.00 0.00 99
20260904200259 65 0.0 0.0 0.00 0.00 0.00 97
20260904195256 66 0.0 0.0 0.00 0.00 0.00 96
20260904194254 67 0.0 0.0 0.00 0.00 0.00 95
20260904193251 66 0.0 0.0 0.00 0.00 0.00 97
20260904192248 67 0.0 0.0 0.00 0.00 0.00 95
20260904191246 67 0.0 0.0 0.00 0.00 0.00 96
20260904190243 68 0.0 0.0 0.00 0.00 0.00 94
20260904185241 66 0.0 0.0 0.00 0.00 0.00 97
20260904184238 68 0.0 0.0 0.00 0.00 0.00 94
20260904183236 66 0.0 0.0 0.00 0.00 0.00 96
20260904182233 67 0.0 0.0 0.00 0.00 0.00 95
20260904181231 68 0.0 0.0 0.00 0.00 0.00 93
20260904180228 69 0.0 0.0 0.00 0.00 0.00 93